When you browse on this site, cookies collect data to enhance your experience and personalize the content and advertising you see.
Visit our Privacy Policy to learn more. By continuing to use the site, you agree to this use of cookies and data.
  • In Romania
  • List of Countries
  • For 7 days
  • Water Temperature
  • Weather Map
  • Weather Widgets
  • user-avatar
    Login

    Hourly Weather Pitsunda

    Today, 18 September, Wednesday

    Time Temperature Precipitation Wind Pressure Humidity
    00:00 +19°C° 0 mm 1 mps 761 mmHg 92%
    01:00 +19°C° 0 mm 1 mps 761 mmHg 90%
    02:00 +17°C° 0 mm 2 mps 761 mmHg 89%
    03:00 +17°C° 0 mm 2 mps 761 mmHg 87%
    04:00 +17°C° 0 mm 2 mps 761 mmHg 85%
    05:00 +17°C° 0 mm 3 mps 762 mmHg 83%
    06:00 +15°C° 0 mm 4 mps 762 mmHg 81%
    07:00 +19°C° 0 mm 4 mps 762 mmHg 72%
    08:00 +21°C° 0 mm 4 mps 762 mmHg 63%
    09:00 +23°C° 0 mm 4 mps 762 mmHg 54%
    10:00 +25°C° 0 mm 4 mps 762 mmHg 51%
    11:00 +27°C° 0 mm 4 mps 761 mmHg 48%
    12:00 +28°C° 0 mm 3 mps 761 mmHg 46%
    13:00 +28°C° 0 mm 3 mps 761 mmHg 47%
    14:00 +28°C° 0 mm 3 mps 761 mmHg 48%
    15:00 +28°C° 0 mm 2 mps 761 mmHg 49%
    16:00 +27°C° 0 mm 2 mps 760 mmHg 57%
    17:00 +25°C° 0 mm 2 mps 760 mmHg 64%
    18:00 +24°C° 0 mm 1 mps 760 mmHg 72%
    19:00 +23°C° 0 mm 1 mps 760 mmHg 66%
    20:00 +23°C° 0 mm 2 mps 760 mmHg 61%
    21:00 +21°C° 0 mm 2 mps 761 mmHg 56%
    22:00 +21°C° 0 mm 2 mps 761 mmHg 53%
    23:00 +21°C° 0 mm 2 mps 761 mmHg 50%

    Tomorrow, 19 September, Thursday

    Time Temperature Precipitation Wind Pressure Humidity
    00:00 +21°C° 0 mm 2 mps 761 mmHg 48%
    01:00 +21°C° 0 mm 2 mps 761 mmHg 47%
    02:00 +21°C° 0 mm 2 mps 761 mmHg 47%
    03:00 +20°C° 0 mm 3 mps 761 mmHg 47%
    04:00 +20°C° 0 mm 3 mps 761 mmHg 46%
    05:00 +20°C° 0 mm 3 mps 761 mmHg 46%
    06:00 +20°C° 0 mm 3 mps 761 mmHg 45%
    07:00 +22°C° 0 mm 3 mps 762 mmHg 44%
    08:00 +25°C° 0 mm 3 mps 762 mmHg 43%
    09:00 +27°C° 0 mm 3 mps 762 mmHg 42%
    10:00 +28°C° 0 mm 4 mps 763 mmHg 43%
    11:00 +28°C° 0 mm 5 mps 763 mmHg 45%
    12:00 +28°C° 0 mm 5 mps 763 mmHg 46%
    13:00 +28°C° 0 mm 5 mps 763 mmHg 49%
    14:00 +28°C° 0 mm 6 mps 763 mmHg 51%
    15:00 +28°C° 0 mm 6 mps 763 mmHg 54%
    16:00 +26°C° 0 mm 5 mps 763 mmHg 63%
    17:00 +23°C° 0 mm 5 mps 763 mmHg 72%
    18:00 +22°C° 0 mm 5 mps 763 mmHg 82%
    19:00 +21°C° 0 mm 5 mps 763 mmHg 80%
    20:00 +20°C° 0 mm 4 mps 763 mmHg 78%
    21:00 +20°C° 0 mm 3 mps 763 mmHg 75%
    22:00 +20°C° 0 mm 3 mps 763 mmHg 74%
    23:00 +19°C° 0 mm 2 mps 763 mmHg 73%

    Day after tomorrow, 20 September, Friday

    Time Temperature Precipitation Wind Pressure Humidity
    00:00 +19°C° 0 mm 2 mps 762 mmHg 72%
    01:00 +19°C° 0 mm 2 mps 762 mmHg 72%
    02:00 +19°C° 0 mm 2 mps 762 mmHg 71%
    03:00 +18°C° 0 mm 2 mps 761 mmHg 71%
    04:00 +18°C° 0 mm 2 mps 761 mmHg 69%
    05:00 +18°C° 0 mm 2 mps 760 mmHg 68%
    06:00 +18°C° 0 mm 2 mps 760 mmHg 67%
    07:00 +21°C° 0 mm 1 mps 760 mmHg 65%
    08:00 +23°C° 0 mm 1 mps 760 mmHg 62%
    09:00 +25°C° 0 mm 1 mps 760 mmHg 60%
    10:00 +25°C° 0 mm 1 mps 760 mmHg 61%
    11:00 +26°C° 0 mm 2 mps 760 mmHg 62%
    12:00 +26°C° 0 mm 2 mps 760 mmHg 63%
    13:00 +25°C° 0.1 mm 3 mps 760 mmHg 67%
    14:00 +25°C° 0.1 mm 4 mps 760 mmHg 71%
    15:00 +23°C° 0.1 mm 5 mps 760 mmHg 76%
    16:00 +22°C° 0 mm 6 mps 760 mmHg 79%
    17:00 +21°C° 0 mm 6 mps 761 mmHg 83%
    18:00 +20°C° 0 mm 7 mps 761 mmHg 86%
    19:00 +18°C° 0 mm 7 mps 761 mmHg 86%
    20:00 +19°C° 0 mm 6 mps 761 mmHg 86%
    21:00 +17°C° 0 mm 6 mps 762 mmHg 87%
    22:00 +17°C° 0 mm 6 mps 762 mmHg 87%
    23:00 +16°C° 0 mm 6 mps 762 mmHg 87%

    21 September, Saturday

    Time Temperature Precipitation Wind Pressure Humidity
    00:00 +15°C° 0 mm 6 mps 762 mmHg 87%
    01:00 +15°C° 0 mm 5 mps 762 mmHg 87%
    02:00 +14°C° 0 mm 5 mps 762 mmHg 86%
    03:00 +14°C° 0 mm 4 mps 762 mmHg 86%
    04:00 +14°C° 0.1 mm 5 mps 762 mmHg 85%
    05:00 +14°C° 0.1 mm 5 mps 762 mmHg 84%
    06:00 +14°C° 0.1 mm 5 mps 762 mmHg 83%
    07:00 +14°C° 0.4 mm 4 mps 762 mmHg 82%
    08:00 +15°C° 0.4 mm 4 mps 762 mmHg 82%
    09:00 +16°C° 0.4 mm 3 mps 762 mmHg 82%
    10:00 +15°C° 0.4 mm 4 mps 763 mmHg 80%
    11:00 +15°C° 0.4 mm 5 mps 763 mmHg 78%
    12:00 +16°C° 0.4 mm 6 mps 763 mmHg 76%
    13:00 +16°C° 0.1 mm 6 mps 763 mmHg 69%
    14:00 +16°C° 0.1 mm 7 mps 763 mmHg 63%
    15:00 +17°C° 0.1 mm 8 mps 764 mmHg 57%
    16:00 +15°C° 0 mm 8 mps 764 mmHg 63%
    17:00 +13°C° 0 mm 8 mps 764 mmHg 70%
    18:00 +11°C° 0 mm 8 mps 765 mmHg 77%
    19:00 +11°C° 0.1 mm 7 mps 766 mmHg 78%
    20:00 +10°C° 0.1 mm 7 mps 766 mmHg 80%
    21:00 +9°C° 0.1 mm 7 mps 767 mmHg 81%
    22:00 +9°C° 0.1 mm 7 mps 767 mmHg 79%
    23:00 +9°C° 0.1 mm 6 mps 767 mmHg 76%

    22 September, Sunday

    Time Temperature Precipitation Wind Pressure Humidity
    00:00 +8°C° 0.1 mm 6 mps 768 mmHg 74%
    01:00 +8°C° 0.1 mm 5 mps 768 mmHg 71%
    02:00 +8°C° 0.1 mm 5 mps 768 mmHg 69%
    03:00 +8°C° 0.1 mm 4 mps 768 mmHg 67%
    04:00 +8°C° 0 mm 4 mps 768 mmHg 65%
    05:00 +7°C° 0 mm 4 mps 769 mmHg 64%
    06:00 +7°C° 0 mm 4 mps 769 mmHg 63%
    07:00 +11°C° 0 mm 4 mps 769 mmHg 57%
    08:00 +13°C° 0 mm 3 mps 769 mmHg 50%
    09:00 +16°C° 0 mm 3 mps 770 mmHg 44%
    10:00 +17°C° 0 mm 3 mps 770 mmHg 44%
    11:00 +18°C° 0 mm 3 mps 770 mmHg 44%
    12:00 +18°C° 0 mm 3 mps 770 mmHg 44%
    13:00 +18°C° 0 mm 3 mps 769 mmHg 46%
    14:00 +18°C° 0 mm 3 mps 769 mmHg 48%
    15:00 +18°C° 0 mm 3 mps 769 mmHg 51%
    16:00 +17°C° 0 mm 3 mps 769 mmHg 61%
    17:00 +14°C° 0 mm 3 mps 769 mmHg 71%
    18:00 +12°C° 0 mm 3 mps 769 mmHg 82%
    19:00 +12°C° 0 mm 3 mps 769 mmHg 82%
    20:00 +11°C° 0 mm 3 mps 769 mmHg 81%
    21:00 +11°C° 0 mm 3 mps 770 mmHg 81%
    22:00 +11°C° 0 mm 3 mps 769 mmHg 80%
    23:00 +12°C° 0 mm 2 mps 769 mmHg 79%

    23 September, Monday

    Time Temperature Precipitation Wind Pressure Humidity
    00:00 +12°C° 0 mm 2 mps 769 mmHg 78%
    01:00 +12°C° 0 mm 2 mps 769 mmHg 75%
    02:00 +12°C° 0 mm 2 mps 768 mmHg 72%
    03:00 +10°C° 0 mm 2 mps 768 mmHg 69%
    04:00 +12°C° 0 mm 2 mps 768 mmHg 64%
    05:00 +12°C° 0 mm 2 mps 767 mmHg 59%
    06:00 +12°C° 0 mm 2 mps 767 mmHg 54%
    07:00 +14°C° 0 mm 2 mps 767 mmHg 48%
    08:00 +17°C° 0 mm 2 mps 766 mmHg 43%
    09:00 +20°C° 0 mm 2 mps 766 mmHg 37%
    10:00 +21°C° 0 mm 3 mps 765 mmHg 38%
    11:00 +22°C° 0 mm 3 mps 765 mmHg 38%
    12:00 +23°C° 0 mm 4 mps 765 mmHg 38%
    13:00 +23°C° 0 mm 4 mps 764 mmHg 41%
    14:00 +24°C° 0 mm 3 mps 763 mmHg 43%
    15:00 +22°C° 0 mm 3 mps 763 mmHg 45%
    16:00 +21°C° 0 mm 3 mps 763 mmHg 54%
    17:00 +19°C° 0 mm 3 mps 762 mmHg 64%
    18:00 +17°C° 0 mm 3 mps 762 mmHg 73%
    19:00 +17°C° 0 mm 2 mps 762 mmHg 71%
    20:00 +16°C° 0 mm 2 mps 762 mmHg 69%
    21:00 +16°C° 0 mm 2 mps 762 mmHg 67%
    22:00 +16°C° 0 mm 2 mps 761 mmHg 63%
    23:00 +16°C° 0 mm 2 mps 761 mmHg 59%
    Show more